EW6058 Weather Reports


Display with metric or nautical units.
time (UTC)temp
F
wind
direction
speed
MPH
gust
MPH
rain 1hr
in
rain 24hr
in
rain mn
in
humidity
%
barometer
mb
20260509143505 57 48 2.0 6.0 0.00 0.01 0.01 76 1014.9
20260509143020 57 174 1.0 5.0 0.00 0.01 0.01 76 1015.0
20260509142505 56 300 0.0 4.0 0.00 0.01 0.01 75 1014.9
20260509142009 56 354 1.0 4.0 0.00 0.01 0.01 76 1014.8
20260509141526 56 279 1.0 3.0 0.00 0.01 0.01 78 1014.8
20260509141010 55 41 1.0 4.0 0.00 0.01 0.01 79 1014.8
20260509140509 55 17 0.0 4.0 0.00 0.01 0.01 80 1014.7
20260509140013 54 330 0.0 4.0 0.00 0.01 0.01 82 1014.8
20260509135505 54 204 0.0 2.0 0.00 0.01 0.01 82 1015.0
20260509135009 54 226 0.0 2.0 0.00 0.01 0.01 80 1015.2
20260509134515 54 327 0.0 2.0 0.00 0.01 0.01 81 1015.3
20260509134007 54 20 0.0 2.0 0.00 0.01 0.01 84 1015.4
20260509133507 54 1 0.0 2.0 0.00 0.01 0.01 82 1015.2
20260509133020 54 337 0.0 5.0 0.00 0.01 0.01 84 1015.4
20260509132507 53 335 0.0 5.0 0.00 0.01 0.01 85 1015.4
20260509132012 53 257 0.0 2.0 0.00 0.01 0.01 84 1015.5
20260509131524 53 238 0.0 2.0 0.00 0.01 0.01 86 1015.6
20260509131009 53 318 1.0 2.0 0.00 0.01 0.01 84 1015.6
20260509130510 53 345 0.0 3.0 0.00 0.01 0.01 86 1015.7
20260509130035 53 263 0.0 3.0 0.00 0.01 0.01 85 1015.8
20260509125511 53 185 1.0 4.0 0.00 0.01 0.01 85 1015.6
20260509125010 53 266 1.0 4.0 0.00 0.01 0.01 87 1015.7
20260509124514 53 285 1.0 6.0 0.00 0.01 0.01 89 1015.8
20260509124006 52 222 1.0 6.0 0.00 0.01 0.01 89 1015.5
20260509123504 52 287 1.0 4.0 0.00 0.01 0.01 92 1015.4
20260509123018 52 186 0.0 3.0 0.00 0.01 0.01 94 1015.4
20260509122509 51 326 0.0 3.0 0.01 0.01 0.01 94 1015.5
20260509122008 51 117 0.0 2.0 0.01 0.01 0.01 95 1015.3
20260509121525 51 10 0.0 2.0 0.01 0.01 0.01 96 1015.4
20260509121007 50 261 0.0 2.0 0.01 0.01 0.01 96 1015.5
20260509120509 50 269 0.0 2.0 0.01 0.01 0.01 96 1015.4
20260509120024 49 269 0.0 2.0 0.01 0.01 0.01 95 1015.6
20260509115509 49 269 0.0 1.0 0.01 0.01 0.01 95 1015.7
20260509115012 49 269 0.0 2.0 0.01 0.01 0.01 95 1015.8
20260509114527 49 269 0.0 2.0 0.01 0.01 0.01 95 1015.7
20260509114010 49 270 0.0 2.0 0.01 0.01 0.01 95 1015.4
20260509113509 49 270 0.0 2.0 0.01 0.01 0.01 94 1015.5
20260509113012 49 242 0.0 2.0 0.01 0.01 0.01 95 1015.6
20260509112507 49 242 0.0 2.0 0.00 0.00 0.00 95 1015.5
20260509112009 48 243 0.0 2.0 0.00 0.00 0.00 94 1015.7
20260509111518 48 242 0.0 2.0 0.00 0.00 0.00 94 1015.8
20260509111012 48 243 0.0 2.0 0.00 0.00 0.00 94 1015.8
20260509110508 48 223 0.0 2.0 0.00 0.00 0.00 94 1015.7
20260509110020 48 223 0.0 0.0 0.00 0.00 0.00 94 1015.8
20260509105508 48 223 0.0 2.0 0.00 0.00 0.00 94 1015.9
20260509105010 48 223 0.0 2.0 0.00 0.00 0.00 94 1016.1
20260509104526 48 223 0.0 2.0 0.00 0.00 0.00 94 1016.0
20260509104003 48 223 0.0 0.0 0.00 0.00 0.00 94 1016.1
20260509103502 48 223 0.0 0.0 0.00 0.00 0.00 94 1015.9
20260509103012 47 223 0.0 0.0 0.00 0.00 0.00 94 1015.8
20260509102509 47 223 0.0 0.0 0.00 0.00 0.00 94 1015.6
20260509102007 47 223 0.0 0.0 0.00 0.00 0.00 94 1015.5
20260509101523 47 223 0.0 0.0 0.00 0.00 0.00 94 1015.5
20260509101008 47 223 0.0 0.0 0.00 0.00 0.00 93 1015.4
20260509100507 47 223 0.0 0.0 0.00 0.00 0.00 94 1015.2
20260509100004 47 223 0.0 0.0 0.00 0.00 0.00 94 1015.0
20260509095503 47 223 0.0 2.0 0.00 0.00 0.00 94 1015.0
20260509095004 47 223 0.0 2.0 0.00 0.00 0.00 94 1014.9
20260509094503 47 190 0.0 0.0 0.00 0.00 0.00 93 1015.1
20260509094004 47 190 0.0 1.0 0.00 0.00 0.00 94 1014.9
20260509093507 47 190 0.0 1.0 0.00 0.00 0.00 93 1014.7
20260509093006 47 190 0.0 2.0 0.00 0.00 0.00 93 1014.8
20260509092507 47 190 0.0 2.0 0.00 0.00 0.00 93 1014.8
20260509092006 47 190 0.0 2.0 0.00 0.00 0.00 93 1014.7
20260509091512 47 190 0.0 0.0 0.00 0.00 0.00 93 1014.6
20260509091007 47 190 0.0 0.0 0.00 0.00 0.00 93 1014.4
20260509090510 47 190 0.0 0.0 0.00 0.00 0.00 93 1014.4
20260509090032 47 190 0.0 0.0 0.00 0.00 0.00 93 1014.3
20260509085508 47 190 0.0 0.0 0.00 0.00 0.00 93 1014.2
20260509085009 47 190 0.0 0.0 0.00 0.00 0.00 93 1014.1
20260509084521 47 190 0.0 0.0 0.00 0.00 0.00 93 1014.2
20260509084002 47 190 0.0 0.0 0.00 0.00 0.00 93 1014.1
20260509083503 47 190 0.0 0.0 0.00 0.00 0.00 93 1014.1
20260509083010 47 190 0.0 0.0 0.00 0.00 0.00 93 1014.1
20260509082503 47 190 0.0 0.0 0.00 0.00 0.00 94 1014.2
20260509082004 47 190 0.0 0.0 0.00 0.00 0.00 94 1014.3
20260509081512 47 190 0.0 0.0 0.00 0.00 0.00 94 1014.4
20260509081005 47 190 0.0 0.0 0.00 0.00 0.00 93 1014.4
20260509080510 47 190 0.0 0.0 0.00 0.00 0.00 93 1014.4
20260509080015 47 190 0.0 0.0 0.00 0.00 0.00 94 1014.3
20260509075507 47 190 0.0 0.0 0.00 0.00 0.00 94 1014.4
20260509075009 47 190 0.0 0.0 0.00 0.00 0.00 94 1014.5
20260509074520 47 190 0.0 0.0 0.00 0.00 0.00 94 1014.5
20260509074011 47 190 0.0 0.0 0.00 0.00 0.00 94 1014.4
20260509073508 47 190 0.0 0.0 0.00 0.00 0.00 94 1014.7
20260509073029 47 190 0.0 0.0 0.00 0.00 0.00 94 1014.7
20260509072505 47 190 0.0 0.0 0.00 0.00 0.00 94 1014.6
20260509072005 46 190 0.0 0.0 0.00 0.00 0.00 94 1014.8
20260509071508 46 190 0.0 0.0 0.00 0.00 0.00 94 1014.8
20260509071005 46 190 0.0 0.0 0.00 0.00 0.00 94 1014.8
20260509070505 46 190 0.0 0.0 0.00 0.00 0.00 94 1014.8
20260509070011 46 190 0.0 0.0 0.00 0.00 0.00 94 1014.8
20260509065505 46 190 0.0 0.0 0.00 0.00 0.00 94 1014.9
20260509065006 46 190 0.0 0.0 0.00 0.00 0.00 94 1014.9
20260509064516 45 190 0.0 0.0 0.00 0.00 0.00 94 1014.8
20260509064010 45 190 0.0 0.0 0.00 0.00 0.00 94 1014.7
20260509063511 45 190 0.0 0.0 0.00 0.00 0.00 94 1014.7
20260509063023 45 190 0.0 0.0 0.00 0.00 0.00 93 1014.8
20260509062510 45 190 0.0 0.0 0.00 0.00 0.00 93 1014.9
20260509062010 45 190 0.0 0.0 0.00 0.00 0.00 93 1014.9
20260509061525 45 190 0.0 0.0 0.00 0.00 0.00 93 1014.8
20260509061004 45 190 0.0 0.0 0.00 0.00 0.00 93 1014.7
20260509060504 44 190 0.0 0.0 0.00 0.00 0.00 93 1014.8
20260509060008 44 190 0.0 0.0 0.00 0.00 0.00 93 1014.7
20260509055505 44 190 0.0 0.0 0.00 0.00 0.00 92 1014.7
20260509055004 44 190 0.0 0.0 0.00 0.00 0.00 92 1014.7
20260509054514 44 190 0.0 0.0 0.00 0.00 0.00 92 1014.7
20260509054010 44 190 0.0 0.0 0.00 0.00 0.00 91 1014.8
20260509053506 44 190 0.0 0.0 0.00 0.00 0.00 91 1014.7
20260509053022 44 190 0.0 0.0 0.00 0.00 0.00 91 1014.7
20260509052507 44 190 0.0 0.0 0.00 0.00 0.00 90 1014.9
20260509052008 44 190 0.0 0.0 0.00 0.00 0.00 91 1014.8
20260509051521 45 190 0.0 2.0 0.00 0.00 0.00 91 1014.6
20260509051009 45 190 0.0 2.0 0.00 0.00 0.00 90 1014.6
20260509050511 45 190 0.0 0.0 0.00 0.00 0.00 89 1014.6
20260509050026 45 190 0.0 0.0 0.00 0.00 0.00 89 1014.7
20260509045508 45 190 0.0 0.0 0.00 0.00 0.00 89 1014.7
20260509045004 45 190 0.0 0.0 0.00 0.00 0.00 90 1014.5
20260509044510 46 190 0.0 0.0 0.00 0.00 0.00 90 1014.4
20260509044009 46 190 0.0 0.0 0.00 0.00 0.00 90 1014.3
20260509043504 46 190 0.0 0.0 0.00 0.00 0.00 90 1014.3
20260509043016 46 190 0.0 0.0 0.00 0.00 0.00 89 1014.4
20260509042507 46 190 0.0 0.0 0.00 0.00 0.00 89 1014.4
20260509042010 46 190 0.0 0.0 0.00 0.00 0.00 88 1014.3
20260509041520 46 190 0.0 0.0 0.00 0.00 0.00 88 1014.2
20260509041011 47 190 0.0 0.0 0.00 0.00 0.00 88 1014.3
20260509040510 47 190 0.0 2.0 0.00 0.00 0.00 87 1014.3
20260509040029 47 190 0.0 2.0 0.00 0.00 0.00 87 1014.2
20260509035509 47 190 0.0 2.0 0.00 0.00 0.00 87 1014.2
20260509035010 48 190 0.0 2.0 0.00 0.00 0.00 86 1014.2
20260509034535 48 190 0.0 0.0 0.00 0.00 0.00 85 1014.1
20260509034012 48 190 0.0 2.0 0.00 0.00 0.00 85 1014.1
20260509033503 48 190 0.0 2.0 0.00 0.00 0.00 85 1014.1
20260509033010 49 191 0.0 2.0 0.00 0.00 0.00 87 1014.1
20260509032507 48 189 0.0 2.0 0.00 0.00 0.00 87 1014.2
20260509032008 48 213 0.0 2.0 0.00 0.00 0.00 86 1014.2
20260509031520 48 213 0.0 2.0 0.00 0.00 0.00 85 1014.1
20260509031008 48 228 0.0 2.0 0.00 0.00 0.00 81 1014.2
20260509030514 48 243 0.0 2.0 0.00 0.00 0.00 80 1014.2
20260509030041 49 193 0.0 2.0 0.00 0.00 0.00 79 1014.1
20260509025507 49 193 0.0 2.0 0.00 0.00 0.00 78 1014.0
20260509025009 49 193 0.0 2.0 0.00 0.00 0.00 78 1014.0
20260509024524 49 193 0.0 2.0 0.00 0.00 0.00 79 1013.9
20260509024009 49 193 0.0 2.0 0.00 0.00 0.00 80 1013.9
20260509023511 49 193 0.0 2.0 0.00 0.00 0.00 82 1013.8
20260509023033 49 191 0.0 2.0 0.00 0.00 0.00 83 1013.8
20260509022509 49 195 0.0 2.0 0.00 0.00 0.00 83 1013.8
20260509022007 49 195 0.0 2.0 0.00 0.00 0.00 83 1013.7
20260509021514 49 195 0.0 2.0 0.00 0.00 0.00 84 1013.6
20260509021007 49 195 0.0 2.0 0.00 0.00 0.00 84 1013.5
20260509020507 48 195 0.0 2.0 0.00 0.00 0.00 85 1013.4
20260509020018 48 195 0.0 2.0 0.00 0.00 0.00 86 1013.4
20260509015507 48 195 0.0 2.0 0.00 0.00 0.00 86 1013.3
20260509015011 48 172 0.0 2.0 0.00 0.00 0.00 84 1013.3
20260509014522 48 172 0.0 0.0 0.00 0.00 0.00 84 1013.3
20260509014008 48 172 0.0 0.0 0.00 0.00 0.00 83 1013.3
20260509013503 48 172 0.0 2.0 0.00 0.00 0.00 82 1013.2
20260509013008 49 172 0.0 2.0 0.00 0.00 0.00 82 1013.3
20260509012507 49 172 0.0 2.0 0.00 0.00 0.00 81 1013.1
20260509012007 49 172 0.0 2.0 0.00 0.00 0.00 81 1013.1
20260509011511 49 172 0.0 2.0 0.00 0.00 0.00 81 1013.0
20260509011004 49 178 0.0 2.0 0.00 0.00 0.00 80 1012.8
20260509010506 49 184 0.0 2.0 0.00 0.00 0.00 79 1012.7
20260509010010 49 184 0.0 2.0 0.00 0.00 0.00 79 1012.7
20260509005504 49 184 0.0 2.0 0.00 0.00 0.00 79 1012.5
20260509005003 49 184 0.0 2.0 0.00 0.00 0.00 78 1012.5
20260509004506 49 184 0.0 2.0 0.00 0.00 0.00 77 1012.5
20260509004004 49 184 0.0 2.0 0.00 0.00 0.00 77 1012.3
20260509003504 49 184 0.0 2.0 0.00 0.00 0.00 76 1012.3
20260509003004 49 189 0.0 2.0 0.00 0.00 0.00 76 1012.1
20260509002505 50 203 0.0 2.0 0.00 0.00 0.00 75 1012.1
20260509002005 50 203 0.0 2.0 0.00 0.00 0.00 75 1011.9
20260509001513 50 204 0.0 2.0 0.00 0.00 0.00 74 1011.8
20260509001004 50 204 0.0 2.0 0.00 0.00 0.00 74 1011.7
20260509000507 51 205 0.0 2.0 0.00 0.00 0.00 74 1011.6
20260509000015 51 211 0.0 2.0 0.00 0.00 0.00 75 1011.4
20260508235507 51 211 0.0 2.0 0.00 0.00 0.00 74 1011.4
20260508235008 51 214 0.0 2.0 0.00 0.00 0.00 74 1011.2
20260508234515 51 214 0.0 2.0 0.00 0.00 0.00 74 1011.1
20260508234005 51 214 1.0 2.0 0.00 0.00 0.00 74 1011.1
20260508233510 52 203 0.0 2.0 0.00 0.00 0.00 73 1010.9
20260508233003 52 204 0.0 2.0 0.00 0.00 0.00 72 1010.9
20260508232503 52 207 0.0 2.0 0.00 0.00 0.00 72 1010.8
20260508232003 52 206 0.0 2.0 0.00 0.00 0.00 71 1010.8
20260508231509 52 172 0.0 2.0 0.00 0.00 0.00 71 1010.8
20260508231004 52 214 0.0 2.0 0.00 0.00 0.00 69 1010.7
20260508230503 52 185 0.0 2.0 0.00 0.00 0.00 69 1010.6
20260508230011 52 196 0.0 3.0 0.00 0.00 0.00 68 1010.6
20260508225508 53 180 1.0 3.0 0.00 0.00 0.00 68 1010.6
20260508225008 53 214 1.0 3.0 0.00 0.00 0.00 69 1010.6
20260508224517 53 173 0.0 2.0 0.00 0.00 0.00 69 1010.6
20260508224007 53 175 1.0 2.0 0.00 0.00 0.00 68 1010.6
20260508223507 53 163 1.0 3.0 0.00 0.00 0.00 67 1010.6
20260508223038 54 176 1.0 4.0 0.00 0.00 0.00 68 1010.6
20260508222508 54 211 1.0 4.0 0.00 0.00 0.00 69 1010.4
20260508222012 54 226 1.0 6.0 0.00 0.00 0.00 69 1010.4
20260508221503 54 177 1.0 6.0 0.00 0.00 0.00 67 1010.4
20260508221004 55 188 2.0 4.0 0.00 0.00 0.00 65 1010.4
20260508220504 55 155 1.0 2.0 0.00 0.00 0.00 64 1010.3
20260508220010 55 161 1.0 2.0 0.00 0.00 0.00 63 1010.4
20260508215511 55 148 1.0 2.0 0.00 0.00 0.00 59 1010.4
20260508215005 55 182 1.0 4.0 0.00 0.00 0.00 57 1010.4
20260508214512 55 181 1.0 5.0 0.00 0.00 0.00 59 1010.4
20260508214008 55 187 1.0 5.0 0.00 0.00 0.00 60 1010.4
20260508213506 55 186 2.0 3.0 0.00 0.00 0.00 58 1010.2
20260508213023 55 155 1.0 3.0 0.00 0.00 0.00 59 1010.1
20260508212508 55 158 1.0 3.0 0.00 0.00 0.00 58 1010.2
20260508212009 55 179 2.0 3.0 0.00 0.00 0.00 59 1010.2
20260508211519 55 167 0.0 4.0 0.00 0.00 0.00 62 1010.1
20260508211008 54 209 2.0 4.0 0.00 0.00 0.00 65 1010.2
20260508210510 53 189 2.0 4.0 0.00 0.00 0.00 71 1010.1
20260508210008 52 65 0.0 2.0 0.00 0.00 0.00 79 1010.0
20260508205505 52 12 0.0 3.0 0.00 0.00 0.00 79 1009.9
20260508205004 51 266 1.0 4.0 0.00 0.00 0.00 73 1010.2
20260508204512 52 133 2.0 6.0 0.00 0.00 0.00 73 1010.3
20260508204005 52 183 2.0 7.0 0.00 0.00 0.00 69 1010.2
20260508203506 52 180 3.0 8.0 0.00 0.00 0.00 71 1010.1
20260508203017 53 191 3.0 8.0 0.00 0.00 0.00 70 1010.1
20260508202506 53 165 3.0 7.0 0.00 0.00 0.00 70 1010.1
20260508202012 54 174 3.0 7.0 0.00 0.00 0.00 70 1010.0
20260508201522 54 212 2.0 7.0 0.00 0.00 0.00 69 1010.0
20260508201006 54 172 2.0 7.0 0.00 0.00 0.00 68 1010.0
20260508200507 55 199 3.0 7.0 0.00 0.00 0.00 68 1009.8
20260508200025 55 176 2.0 7.0 0.00 0.00 0.00 67 1009.8
20260508195511 56 161 3.0 6.0 0.00 0.00 0.00 65 1009.6
20260508195007 56 212 2.0 6.0 0.00 0.00 0.00 64 1009.6
20260508194506 56 169 3.0 6.0 0.00 0.00 0.00 64 1009.5
20260508194004 57 200 2.0 6.0 0.00 0.00 0.00 64 1009.5
20260508193507 57 198 3.0 9.0 0.00 0.00 0.00 62 1009.6
20260508193016 57 172 4.0 9.0 0.00 0.00 0.00 62 1009.5
20260508192508 57 174 3.0 8.0 0.00 0.00 0.00 63 1009.5
20260508192008 57 214 2.0 8.0 0.00 0.00 0.00 63 1009.4
20260508191525 57 190 3.0 8.0 0.00 0.00 0.00 61 1009.5
20260508191006 57 215 3.0 6.0 0.00 0.00 0.00 61 1009.6
20260508190507 57 184 2.0 6.0 0.00 0.00 0.00 61 1009.5
20260508190023 57 206 3.0 8.0 0.00 0.00 0.00 59 1009.5
20260508185505 58 172 3.0 8.0 0.00 0.00 0.00 59 1009.5
20260508185011 58 173 2.0 8.0 0.00 0.00 0.00 56 1009.4
20260508184525 58 179 3.0 7.0 0.00 0.00 0.00 56 1009.4
20260508184011 58 174 3.0 7.0 0.00 0.00 0.00 54 1009.4
20260508183517 58 187 4.0 7.0 0.00 0.00 0.00 58 1009.5
20260508183024 58 205 3.0 7.0 0.00 0.00 0.00 58 1009.5
20260508182505 58 206 3.0 9.0 0.00 0.00 0.00 55 1009.6
20260508182009 58 158 3.0 9.0 0.00 0.00 0.00 52 1009.6
20260508181517 59 229 3.0 7.0 0.00 0.00 0.00 52 1009.7
20260508181008 59 215 3.0 7.0 0.00 0.00 0.00 53 1009.8
20260508180510 0 186 2.0 6.0 0.00 0.00 0.00 51 1009.6
20260508180023 0 174 3.0 6.0 0.00 0.00 0.00 52 1009.7
20260508175507 59 158 2.0 6.0 0.00 0.00 0.00 51 1009.7
20260508175012 59 163 3.0 6.0 0.00 0.00 0.00 47 1009.8
20260508174523 60 144 3.0 6.0 0.00 0.00 0.00 46 1009.8
20260508174015 60 186 2.0 5.0 0.00 0.00 0.00 48 1009.8
20260508173509 60 140 2.0 5.0 0.00 0.00 0.00 47 1009.9
20260508173025 60 184 1.0 5.0 0.00 0.00 0.00 48 1009.8
20260508172514 60 165 1.0 3.0 0.00 0.00 0.00 46 1009.8
20260508172011 60 162 1.0 5.0 0.00 0.00 0.00 45 1009.8
20260508171516 59 129 2.0 5.0 0.00 0.00 0.00 46 1009.8
20260508171015 60 174 2.0 5.0 0.00 0.00 0.00 42 1009.8
20260508170507 61 146 2.0 5.0 0.00 0.00 0.00 41 1009.9
20260508170019 61 242 2.0 8.0 0.00 0.00 0.00 41 1010.0
20260508165506 61 141 1.0 8.0 0.00 0.00 0.00 43 1009.8
20260508165010 61 189 3.0 7.0 0.00 0.00 0.00 42 1009.9
20260508164524 62 179 3.0 7.0 0.00 0.00 0.00 43 1010.1
20260508164003 61 214 1.0 6.0 0.00 0.00 0.00 42 1010.0
20260508163502 61 167 2.0 4.0 0.00 0.00 0.00 39 1010.2
20260508163006 61 161 1.0 4.0 0.00 0.00 0.00 43 1010.1
20260508162504 61 160 2.0 5.0 0.00 0.00 0.00 37 1010.3
20260508162007 61 205 2.0 5.0 0.00 0.00 0.00 38 1010.2
20260508161509 61 174 1.0 4.0 0.00 0.00 0.00 35 1010.3
20260508161008 61 177 2.0 4.0 0.00 0.00 0.00 34 1010.4
20260508160507 62 174 2.0 4.0 0.00 0.00 0.00 36 1010.3
20260508160022 62 210 2.0 5.0 0.00 0.00 0.00 35 1010.3
20260508155511 62 193 2.0 5.0 0.00 0.00 0.00 34 1010.4
20260508155010 62 212 1.0 4.0 0.00 0.00 0.00 37 1010.3
20260508154505 61 163 1.0 3.0 0.00 0.00 0.00 36 1010.3
20260508154006 61 169 1.0 3.0 0.00 0.00 0.00 35 1010.4
20260508153503 62 171 1.0 4.0 0.00 0.00 0.00 35 1010.4
20260508153006 62 120 1.0 4.0 0.00 0.00 0.00 37 1010.4
20260508152506 62 164 1.0 3.0 0.00 0.00 0.00 39 1010.5
20260508152006 62 179 1.0 3.0 0.00 0.00 0.00 38 1010.6
20260508151508 62 220 1.0 3.0 0.00 0.00 0.00 36 1010.5
20260508151011 61 218 1.0 3.0 0.00 0.00 0.00 40 1010.5
20260508150509 60 148 1.0 3.0 0.00 0.00 0.00 37 1010.6
20260508150034 60 160 1.0 3.0 0.00 0.00 0.00 39 1010.7
20260508145507 61 113 1.0 3.0 0.00 0.00 0.00 39 1010.7
20260508145008 61 153 1.0 4.0 0.00 0.00 0.00 42 1010.7
20260508144516 60 207 2.0 4.0 0.00 0.00 0.00 45 1010.7
20260508144007 60 158 1.0 3.0 0.00 0.00 0.00 43 1010.7